Home   Weather   Jubail   Past weeks
Flag for Saudi Arabia

Past Weather in Jubail, Saudi Arabia — Yesterday and Last 2 Weeks

Now
93 °F

Clear.


Feels Like: 96 °F
Forecast: 107 / 82 °F
Wind: 8 mph from Northeast

Location: King Fahd International Airport

Current Time: Aug 18, 2019 at 10:15:25 pm

Latest Report: Aug 18, 2019 at 9:00 pm


Visibility: 10 mi

Pressure: 29.59 "Hg

Humidity: 41%

Dew Point: 66 °F

Location of JubailLocation

Past Weather in Jubail — Graph

°F

Jubail Temperature Yesterday

Maximum temperature yesterday: 108 °F (at 12:00 pm)
Minimum temperature yesterday: 88 °F (at 4:00 am)
Average temperature yesterday: 97 °F

High & Low Weather Summary for the Past Weeks

 TemperatureHumidityPressure
High115 °F (Aug 6, 2:00 pm)80% (Aug 14, 7:00 am)29.59 "Hg (Aug 14, 7:00 am)
Low82 °F (Aug 5, 4:00 am)6% (Aug 10, 12:00 pm)29.30 "Hg (Aug 8, 3:00 pm)
Average99 °F22%29.44 "Hg
* Reported Aug 3 9:00 pm — Aug 18 9:00 pm, Jubail. Weather by CustomWeather, © 2019

Note: Actual official high and low records may vary slightly from our data, if they occured in-between our weather recording intervals... More about our weather records

Advertising

Jubail Weather History for the Previous 24 Hours

Scroll right to see more
 ConditionsComfort  
Time TempWeatherWind HumidityBarometerVisibility
9:00 pm
Sun, Aug 18
93 °FClear.8 mph41%29.59 "Hg10 mi
8:00 pm93 °FClear.9 mph41%29.59 "Hg10 mi
7:00 pm97 °FClear.9 mph27%29.56 "Hg10 mi
6:00 pm100 °FSunny.13 mph21%29.53 "Hg10 mi
5:00 pm104 °FSunny.13 mph17%29.53 "Hg10 mi
4:00 pm108 °FSunny.15 mph11%29.53 "Hg10 mi
3:00 pm109 °FSunny.15 mph9%29.53 "Hg10 mi
2:00 pm109 °FSunny.15 mph10%29.53 "Hg10 mi
1:00 pm109 °FSunny.15 mph9%29.53 "Hg10 mi
12:00 pm109 °FSunny.17 mph8%29.56 "Hg10 mi
11:00 am109 °FSunny.12 mph8%29.56 "Hg10 mi
10:00 am106 °FSunny.9 mph10%29.56 "Hg10 mi
9:00 am102 °FSunny.6 mph11%29.56 "Hg10 mi
8:00 am95 °FSunny.6 mph12%29.56 "Hg10 mi
7:00 am88 °FSunny.6 mph17%29.53 "Hg10 mi
6:00 am82 °FSunny.6 mph21%29.53 "Hg10 mi
5:00 am84 °FClear.8 mph22%29.53 "Hg10 mi
4:00 am84 °FClear.9 mph22%29.53 "Hg10 mi
3:00 am84 °FClear.9 mph23%29.50 "Hg10 mi
2:00 am84 °FClear.7 mph25%29.50 "Hg10 mi
1:00 am84 °FClear.No wind31%29.50 "Hg10 mi
12:00 am84 °FClear.No wind31%29.50 "Hg10 mi
11:00 pm
Sat, Aug 17
88 °FClear.7 mph27%29.50 "Hg10 mi
10:00 pm90 °FClear.6 mph29%29.50 "Hg10 mi
Weather by CustomWeather, © 2019

See weather overview